EW7556 Weather Reports


time (UTC)temp
C
wind
direction
speed
KPH
gust
KPH
rain 1hr
cm
rain 24hr
cm
rain mn
cm
humidity
%
barometer
mb
20260510001510 17 350 1.6 4.8 0.00 0.00 0.00 61 1018.4
20260510000132 17 319 0.0 6.4 0.00 0.00 0.00 60 1018.5
20260509234608 17 275 1.6 8.0 0.00 0.00 0.00 60 1018.8
20260509233003 17 335 0.0 4.8 0.00 0.00 0.00 61 1018.8
20260509231526 17 335 3.2 6.4 0.00 0.00 0.00 60 1019.2
20260509230003 18 337 1.6 6.4 0.00 0.00 0.00 63 1019.3
20260509224507 17 325 0.0 6.4 0.00 0.00 0.00 66 1019.5
20260509223014 17 317 0.0 8.0 0.00 0.00 0.00 66 1019.7
20260509221526 17 220 0.0 8.0 0.00 0.00 0.00 67 1020.0
20260509220120 16 249 0.0 6.4 0.00 0.00 0.00 69 1020.3
20260509214501 16 239 1.6 9.7 0.00 0.00 0.00 71 1020.5
20260509213006 16 214 3.2 8.0 0.00 0.00 0.00 69 1020.7
20260509211508 16 237 1.6 8.0 0.00 0.00 0.00 69 1020.7
20260509210005 16 233 0.0 6.4 0.00 0.00 0.00 69 1020.7
20260509204506 15 209 3.2 9.7 0.00 0.00 0.00 73 1021.1
20260509203010 15 255 4.8 9.7 0.00 0.00 0.00 75 1021.4
20260509201514 15 255 4.8 11.3 0.00 0.00 0.00 73 1021.4
20260509200121 15 220 3.2 8.0 0.00 0.00 0.00 72 1021.2
20260509194506 15 328 1.6 8.0 0.00 0.00 0.00 73 1021.2
20260509193009 15 215 4.8 11.3 0.00 0.00 0.00 74 1021.6
20260509191512 14 280 4.8 11.3 0.00 0.00 0.00 74 1021.7
20260509190119 14 195 3.2 11.3 0.00 0.00 0.00 75 1021.8
20260509184604 14 230 3.2 9.7 0.00 0.00 0.00 76 1021.9
20260509183004 15 243 4.8 8.0 0.00 0.00 0.00 75 1021.9
20260509181508 15 218 1.6 8.0 0.00 0.00 0.00 74 1021.9
20260509180114 15 340 0.0 6.4 0.00 0.00 0.00 76 1022.0
20260509174601 14 254 0.0 8.0 0.00 0.00 0.00 75 1021.9
20260509173110 15 326 0.0 9.7 0.00 0.00 0.00 76 1022.1
20260509171622 14 328 0.0 6.4 0.00 0.00 0.00 76 1022.1
20260509170011 14 236 0.0 8.0 0.00 0.00 0.00 75 1022.4
20260509164507 13 326 1.6 6.4 0.00 0.00 0.00 77 1022.3
20260509163018 13 349 1.6 6.4 0.00 0.00 0.00 77 1022.4
20260509161520 14 360 0.0 4.8 0.00 0.00 0.00 78 1022.4
20260509160018 13 273 0.0 4.8 0.00 0.00 0.00 77 1022.5
20260509154517 13 298 0.0 4.8 0.00 0.00 0.00 77 1022.6
20260509153021 13 336 0.0 3.2 0.00 0.00 0.00 76 1022.8
20260509151525 13 264 0.0 1.6 0.00 0.00 0.00 76 1022.7
20260509150012 14 274 0.0 1.6 0.00 0.00 0.00 78 1022.7
20260509144516 12 196 0.0 0.0 0.00 0.00 0.00 86 1022.9
20260509143020 11 196 0.0 0.0 0.00 0.00 0.00 90 1023.0
20260509141533 9 196 0.0 0.0 0.00 0.00 0.00 92 1022.9
20260509140010 8 196 0.0 0.0 0.00 0.00 0.00 92 1023.1
20260509134514 8 196 0.0 0.0 0.00 0.00 0.00 92 1022.9
20260509133017 8 196 0.0 0.0 0.00 0.00 0.00 92 1023.1
20260509131520 8 196 0.0 0.0 0.00 0.00 0.00 92 1023.1
20260509130007 7 196 0.0 0.0 0.00 0.00 0.00 92 1022.9
20260509124527 7 196 0.0 0.0 0.00 0.00 0.00 91 1023.0
20260509123029 8 196 0.0 0.0 0.00 0.00 0.00 91 1022.9
20260509121530 8 196 0.0 0.0 0.00 0.00 0.00 91 1022.9
20260509120014 8 196 0.0 0.0 0.00 0.00 0.00 92 1023.1
20260509114517 7 196 0.0 0.0 0.00 0.00 0.00 92 1023.2
20260509113021 7 196 0.0 0.0 0.00 0.00 0.00 91 1023.2
20260509111542 7 196 0.0 0.0 0.00 0.00 0.00 91 1023.2
20260509110048 7 196 0.0 1.6 0.00 0.00 0.00 91 1023.3
20260509104533 7 196 0.0 0.0 0.00 0.00 0.00 91 1023.2
20260509103034 7 196 0.0 0.0 0.00 0.00 0.00 91 1023.1
20260509101537 7 196 0.0 1.6 0.00 0.00 0.00 91 1023.0
20260509100041 7 196 0.0 3.2 0.00 0.00 0.00 92 1022.9
20260509094526 7 196 0.0 0.0 0.00 0.00 0.00 92 1022.9
20260509093030 7 196 0.0 1.6 0.00 0.00 0.00 92 1023.0
20260509091541 6 196 0.0 1.6 0.00 0.00 0.00 92 1023.0
20260509090049 6 196 0.0 1.6 0.00 0.00 0.00 92 1023.1
20260509084535 6 196 0.0 1.6 0.00 0.00 0.00 92 1023.1
20260509083040 5 196 0.0 0.0 0.00 0.00 0.00 92 1023.3
20260509081543 5 196 0.0 1.6 0.00 0.00 0.00 92 1023.3
20260509080040 5 196 0.0 1.6 0.00 0.00 0.00 91 1023.3
20260509074526 5 196 0.0 0.0 0.00 0.00 0.00 91 1023.3
20260509073031 5 196 0.0 0.0 0.00 0.00 0.00 91 1023.3
20260509071533 5 196 0.0 0.0 0.00 0.00 0.00 91 1023.2
20260509070018 6 196 0.0 0.0 0.00 0.00 0.00 91 1023.1
20260509064523 6 196 0.0 0.0 0.00 0.00 0.00 90 1023.2
20260509063026 6 196 0.0 3.2 0.00 0.00 0.00 90 1023.1
20260509061529 6 196 0.0 0.0 0.00 0.00 0.00 90 1023.1
20260509060014 7 196 0.0 0.0 0.00 0.00 0.00 89 1023.1
20260509054525 7 196 0.0 0.0 0.00 0.00 0.00 89 1023.1
20260509053057 7 196 0.0 0.0 0.00 0.00 0.00 88 1023.0
20260509051542 8 196 0.0 0.0 0.00 0.00 0.00 87 1023.0
20260509050036 8 196 0.0 0.0 0.00 0.00 0.00 84 1023.0
20260509044524 10 196 0.0 0.0 0.00 0.00 0.00 84 1023.0
20260509043028 10 196 0.0 0.0 0.00 0.00 0.00 82 1022.9
20260509041532 11 196 0.0 1.6 0.00 0.00 0.00 80 1022.8
20260509040017 11 210 0.0 1.6 0.00 0.00 0.00 80 1022.7
20260509034520 11 210 0.0 3.2 0.00 0.00 0.00 78 1022.6
20260509033022 11 213 0.0 4.8 0.00 0.00 0.00 76 1022.5
20260509031525 12 213 0.0 4.8 0.00 0.00 0.00 75 1022.5
20260509030025 12 231 1.6 6.4 0.00 0.00 0.00 74 1022.5
20260509024514 12 220 1.6 6.4 0.00 0.00 0.00 74 1022.4
20260509023026 12 233 0.0 6.4 0.00 0.00 0.00 74 1022.3
20260509021522 12 238 1.6 8.0 0.00 0.00 0.00 74 1022.2
20260509020007 12 216 1.6 9.7 0.00 0.00 0.00 74 1022.1
20260509014520 12 197 1.6 8.0 0.00 0.00 0.00 73 1022.1
20260509013027 12 219 3.2 9.7 0.00 0.00 0.00 71 1022.1
20260509011530 13 236 3.2 8.0 0.00 0.00 0.00 69 1022.1
20260509010014 13 245 3.2 9.7 0.00 0.00 0.00 69 1022.1
20260509004526 13 245 4.8 11.3 0.00 0.00 0.00 68 1022.2
20260509003042 13 242 3.2 9.7 0.00 0.00 0.00 69 1022.2